Terminal Aerodrome Forecast
Issued by NWS Portland, ME

Home | Current Version | Previous Version | Text Only | Print | Product List | Glossary On
Versions: 1 2 3 4 5 6 7 8 9 10 11 12 13 14 15 16 17 18
000
FTUS41 KGYX 191120
TAFPWM
TAF
KPWM 191120Z 1912/2012 36008KT P6SM SKC
     FM191800 15007KT P6SM SKC
     FM192300 19004KT P6SM SKC=

USA.gov is the U.S. government's official web portal to all federal, state and local government web resources and services.